Погода в Яштуге

Россия / Республика Марий Эл     56°04′19″N   46°13′34″E
темп.,
°C
ветер,
м/с
пор.,
м/с
влажн.,
%
обл.,
%
осадки,
мм/ч
давл.,
гПа
погр.,
м
6 марта, сб
сб600:00−8з389697 0.7 1009239
03:00−11зсз499597 0.8 1012306
06:00−17зсз239821 0.0 101333
09:00−14з249318 0.0 1015163
12:00−9зюз358960 0.0 1015388
15:00−8зюз468870 0.0 1013581
18:00−11зюз339591 0.1 101360
21:00−14зюз129662 0.1 101320
7 марта, вс
вс700:00−14зюз229887 0.0 101222
03:00−15зюз229886 0.1 101120
06:00−16юз239974 0.0 101023
09:00−14ююз479475 0.1 1009233
12:00−9ю51090100 0.0 1006464
15:00−8ю71391100 0.1 1002777
18:00−7ю71394100 1.5 997937
21:00−5ююз71394100 2.8 994853
8 марта, пн
пн800:00−5зюз71194100 1.6 992761
03:00−11зюз4108883 1.8 994230
06:00−14юз379233 0.0 995152
09:00−10юз499343 0.0 996422
12:00−6юз5889100 0.3 996868
15:00−5юз61090100 0.8 996975
18:00−9з378894 1.5 998173
21:00−13зсз339347 1.5 100058
9 марта, вт
вт900:00−14зсз239859 0.0 100243
03:00−14сз379779 0.1 1005196
06:00−19сз369897 0.1 1007154
09:00−18сз369591 0.1 1010256
12:00−14сз359090 0.0 1011462
15:00−12сз468795 0.1 1012721
18:00−15сз3696100 0.1 1013183
21:00−18сз3698100 0.1 1016132
10 марта, ср
ср1000:00−20сз2410098 0.1 101683
03:00−23ссз2310095 0.1 101851
06:00−26ссз349998 0.0 101993
09:00−25ссз369695 0.1 1021252
12:00−20ссз359173 0.0 1022463
15:00−18сз468786 0.0 1023583
18:00−22зсз339558 0.0 102324
21:00−23зсз379829 0.0 1024113